Regional Weather Roundup
Issued by NWS State College, PA

Home | Current Version | Previous Version | Text Only | Print | Product List | Glossary Off
Versions: 1 2 3 4 5 6 7 8 9 10 11 12 13 14 15 16 17 18 19 20 21 22 23 24 25 26 27 28 29 30 31 32 33 34 35 36 37 38 39 40 41 42 43 44 45 46 47 48 49 50

000
ASUS41 KCTP 142103
RWRCTP

REGIONAL WEATHER ROUNDUP
NATIONAL WEATHER SERVICE STATE COLLEGE PA
500 PM EDT SUN SEP 14 2014

Note: "fair" indicates few or no clouds below 12,000 feet with no
significant weather and/or obstructions to visibility.

* = STATION THAT DOES NOT REPORT PRECIPITATION /E.G. RAIN...SNOW...ETC/
    THUNDER OR FOG.

PAZ002>004-007>009-013>016-020>023-029>032-142200-
WESTERN PENNSYLVANIA

CITY           SKY/WX    TMP DP  RH WIND       PRES   REMARKS
ERIE           SUNNY     62  40  44 N10       30.24F
MEADVILLE      CLOUDY    61  42  49 W7        30.23F
FRANKLIN*      MOSUNNY   63  43  48 W3        30.24F
NEW CASTLE     FAIR      63  45  51 CALM      30.24F
BEAVER COUNTY  SUNNY     63  45  51 CALM      30.23F
BUTLER*        MOSUNNY   63  43  48 W6        30.25F
PITTSBURGH INT MOSUNNY   64  43  46 NW7       30.23F
PITTSBURGH     MOSUNNY   64  41  42 CALM      30.22F
INDIANA*       MOSUNNY   64  45  48 VRB7G13   30.26F
LATROBE        SUNNY     64  46  52 W6        30.23F
WASHINGTON CO* SUNNY     64  45  48 W3        30.23F
$$

PAZ004>006-010>012-017>019-024>028-033>037-041-042-045-046-049>053-142200-
CENTRAL PENNSYLVANIA

CITY           SKY/WX    TMP DP  RH WIND       PRES   REMARKS
BRADFORD       CLOUDY    61  44  53 NW9       30.23F
DUBOIS         PTSUNNY   61  44  53 CALM      30.23F
CLEARFIELD     CLOUDY    60  47  61 NE6       30.24F
JOHNSTOWN      MOSUNNY   61  41  47 NW7       30.22F
ALTOONA        PTSUNNY   61  47  59 CALM      30.23F
STATE COLLEGE  MOSUNNY   61  45  55 CALM      30.23F
WILLIAMSPORT   PTSUNNY   65  43  44 SW6       30.21S
SELINSGROVE    MOSUNNY   65  44  46 N3        30.23F
FT INDIANTOWN  PTSUNNY   64  48  56 W7        30.22F
CAPITAL CITY   PTSUNNY   64  44  48 N6        30.23F
HARRISBURG     PTSUNNY   64  45  49 W3        30.22F
YORK           PTSUNNY   66  45  46 VRB5      30.22F
$$

PAZ038>040-043-044-047-048-054-055-060>062-067>071-142200-
EASTERN PENNSYLVANIA

CITY           SKY/WX    TMP DP  RH WIND       PRES   REMARKS
SCRANTON       PTSUNNY   64  42  44 NW7       30.21F
MOUNT POCONO   PTSUNNY   62  39  42 CALM      30.21F
ALLENTOWN      PTSUNNY   67  44  43 VRB3      30.20S
QUAKERTOWN*    MOCLDY    64  46  52 CALM      30.21F
READING        PTSUNNY   66  44  45 W7        30.21S
LANCASTER      PTSUNNY   65  45  48 NW5       30.22F
COATESVILLE    MOCLDY    63  48  59 W3        30.23S
POTTSTOWN      PTSUNNY   65  45  48 CALM      30.22F
BLUE BELL      MOSUNNY   68  48  49 CALM      30.20S
DOYLESTOWN     MOSUNNY   66  46  48 N5        30.20S
WILLOW GROVE   NOT AVBL
NORTH PHILA    SUNNY     71  46  40 W5        30.21F
PHILADELPHIA   PTSUNNY   68  47  46 S8        30.20F
$$


USA.gov is the U.S. government's official web portal to all federal, state and local government web resources and services.